Weather History for Cross City, FL

Change the Weather History Date:

Sunday, December 1, 2013

  Actual Average Record
Temperature  
Mean Temperature 64 °F 58 °F  
Max Temperature 74 °F 71 °F 79 °F (1998)
Min Temperature 53 °F 46 °F 25 °F (1999)
Degree Days  
Heating Degree Days 1 8  
Month to date heating degree days 1 8  
Since 1 July heating degree days 130 176  
Cooling Degree Days 0 1  
Month to date cooling degree days 0 1  
Year to date cooling degree days 2822 2603  
Growing Degree Days 13 (Base 50)    
Moisture  
Dew Point 55 °F    
Average Humidity 86    
Maximum Humidity 100    
Minimum Humidity 57    
Precipitation  
Precipitation 0.00 in 0.08 in 0.16 in (2010)
Month to date precipitation 0.00 0.08  
Year to date precipitation 61.47 45.92  
Sea Level Pressure  
Sea Level Pressure 30.14 in    
Wind  
Wind Speed 2 mph (NE)    
Max Wind Speed 8 mph    
Max Gust Speed 13 mph    
T = Trace of Precipitation, MM = Missing Value Source: NWS Daily Summary

Daily Weather History Graph

Daily Weather History Graph

Search for Another Location

Airport:

Trip Planner

Search our weather history database for the weather conditions in past years. The results will help you decide how hot, cold, wet, or windy it might be!

Date:

Astronomy

Dec. 01, 2013 Rise Set
Actual Time 7:10 AM EST 5:32 PM EST
Civil Twilight 6:44 AM EST 5:58 PM EST
Nautical Twilight 6:14 AM EST 6:28 PM EST
Astronomical Twilight 5:45 AM EST 6:57 PM EST
Moon 5:32 AM EST (12/1) 4:37 PM EST (12/1)
Length of Visible Light 11h 14m
Length of Day
10h 22m
Waning Crescent, 2% of the Moon is Illuminated
Dec 1
Waning Crescent
Dec 2
New
Dec 9
First Quarter
Dec 17
Full
Dec 25
Last Quarter

Hourly Weather History & Observations

Time (EST) Temp. Dew Point Humidity Pressure Visibility Wind Dir Wind Speed Gust Speed Precip Events Conditions
12:53 AM 54.0 °F 52.0 °F 93% 30.24 in - Variable 4.6 mph - N/A   Unknown
1:53 AM 54.0 °F 52.0 °F 93% 30.22 in - Calm Calm - N/A   Unknown
2:53 AM 53.1 °F 52.0 °F 96% 30.21 in - NE 4.6 mph - N/A   Unknown
3:53 AM 53.1 °F 53.1 °F 100% 30.20 in - ENE 4.6 mph - N/A   Unknown
4:53 AM 53.1 °F 53.1 °F 100% 30.20 in - NE 3.5 mph - N/A   Unknown
5:53 AM 53.1 °F 53.1 °F 100% 30.21 in - NE 4.6 mph - N/A   Unknown
6:53 AM 53.1 °F 53.1 °F 100% 30.22 in - ENE 4.6 mph - N/A   Unknown
7:53 AM 53.1 °F 53.1 °F 100% 30.22 in - NE 3.5 mph - 0.01 in   Unknown
8:53 AM 54.0 °F 54.0 °F 100% 30.23 in - ENE 3.5 mph - N/A   Unknown
9:53 AM 55.9 °F 55.0 °F 97% 30.24 in - Calm Calm - N/A   Unknown
10:53 AM 62.1 °F 55.9 °F 80% 30.21 in - Calm Calm - N/A   Unknown
11:53 AM 69.1 °F 57.9 °F 68% 30.17 in - Calm Calm - N/A   Unknown
12:53 PM 73.9 °F 59.0 °F 59% 30.14 in - Variable 4.6 mph - N/A   Unknown
1:53 PM 73.0 °F 57.9 °F 59% 30.10 in - NW 4.6 mph - N/A   Unknown
2:53 PM 73.9 °F 57.9 °F 57% 30.08 in - Variable 6.9 mph - N/A   Unknown
3:53 PM 73.0 °F 57.0 °F 57% 30.06 in - NNE 4.6 mph - N/A   Unknown
4:53 PM 71.1 °F 57.9 °F 63% 30.06 in - Calm Calm - N/A   Unknown
5:53 PM 64.0 °F 59.0 °F 84% 30.06 in - WNW 4.6 mph - N/A   Unknown
6:53 PM 61.0 °F 57.9 °F 90% 30.06 in - Calm Calm - N/A   Unknown
7:53 PM 57.0 °F 55.9 °F 96% 30.06 in - Calm Calm - N/A   Unknown
8:53 PM 55.0 °F 54.0 °F 96% 30.05 in - Calm Calm - N/A   Unknown
9:53 PM 54.0 °F 53.1 °F 97% 30.03 in - Calm Calm - N/A   Unknown
10:53 PM 53.1 °F 52.0 °F 96% 30.02 in - Calm Calm - N/A   Unknown
11:53 PM 55.0 °F 54.0 °F 96% 30.01 in - Calm Calm - N/A   Unknown